Weather History for MMDO - January, 2013

Change the Weather History Date:

Monday, January 28, 2013

  Actual Average Record
Temperature  
Mean Temperature 61 °F -  
Max Temperature 77 °F 72 °F 81 °F (2015)
Min Temperature 45 °F 36 °F 26 °F (1998)
Degree Days  
Heating Degree Days 4    
Growing Degree Days 11 (Base 50)    
Moisture  
Dew Point 34 °F    
Average Humidity 41    
Maximum Humidity 81    
Minimum Humidity 15    
Precipitation  
Precipitation 0.00 in - - ()
Sea Level Pressure  
Sea Level Pressure 30.07 in    
Wind  
Wind Speed 9 mph ()    
Max Wind Speed 26 mph    
Max Gust Speed -    
Visibility 12.0 miles    
Events      
Averages and records for this station are not official NWS values.
T = Trace of Precipitation, MM = Missing Value Source: Averaged Metar Reports

Daily Weather History Graph

Daily Weather History Graph

Search for Another Location

Airport or City:

Trip Planner

Search our weather history database for the weather conditions in past years. The results will help you decide how hot, cold, wet, or windy it might be!

Date:

Astronomy

Jan. 28, 2013 Rise Set
Actual Time 7:40 AM CST 6:41 PM CST
Civil Twilight 7:16 AM CST 7:05 PM CST
Nautical Twilight 6:49 AM CST 7:32 PM CST
Astronomical Twilight 6:22 AM CST 7:59 PM CST
Moon 8:20 PM CST (1/28) 8:23 AM CST (1/28)
Length of Visible Light 11h 48m
Length of Day
11h 00m
Full, 98% of the Moon is Illuminated
Jan 28
Full
Feb 3
Last Quarter
Feb 10
New
Feb 17
First Quarter
Feb 25
Full

Hourly Weather History & Observations

Time (CST) Temp. Windchill Dew Point Humidity Pressure Visibility Wind Dir Wind Speed Gust Speed Precip Events Conditions
2:55 AM 52 °F - 44 °F 67% 29.92 in 6 mi WSW 4.5 mph - -  
5:52 AM 48 °F - 42 °F 72% 30.01 in 6 mi WNW 2.2 mph - -  
6:01 AM 44.6 °F 40.7 °F 37.4 °F 76% 29.99 in 10.0 mi South 6.9 mph - N/A   Clear
6:41 AM 42.8 °F 38.6 °F 35.6 °F 76% 30.28 in 10.0 mi South 6.9 mph - N/A   Clear
7:41 AM 42.8 °F 37.5 °F 37.4 °F 81% 30.29 in 12.0 mi South 9.2 mph - N/A   Clear
8:44 AM 48.2 °F - 39.2 °F 71% 30.03 in 12.0 mi South 8.1 mph - N/A   Clear
8:51 AM 51 °F - 43 °F 66% 30.10 in 19 mi WSW 2.2 mph - -  
9:44 AM 53.6 °F - 39.2 °F 58% 30.31 in 12.0 mi SSW 4.6 mph - N/A   Clear
10:42 AM 60.8 °F - 32.0 °F 34% 30.31 in 12.0 mi North - - N/A   Clear
11:43 AM 64.4 °F - 30.2 °F 28% 29.98 in 14.0 mi SSW 16.1 mph - N/A   Clear
11:50 AM 68 °F - 38 °F 22% 30.06 in 19 mi WSW 6.7 mph - -  
12:42 PM 69.8 °F - 21.2 °F 16% 30.24 in 14.0 mi SSW 20.7 mph - N/A   Clear
1:46 PM 71.6 °F - 21.2 °F 15% 30.20 in 14.0 mi SSW 24.2 mph - N/A   Clear
2:40 PM 73 °F - 38 °F 18% 29.90 in 25 mi SW 17.9 mph - -   Scattered Clouds
2:47 PM 71.6 °F - 24.8 °F 17% 29.91 in 14.0 mi South 26.5 mph - N/A   Clear
3:44 PM 73.4 °F - 24.8 °F 16% 30.16 in 14.0 mi SW 23.0 mph - N/A   Clear
4:43 PM 71.6 °F - 26.6 °F 19% 30.16 in 14.0 mi SSW 24.2 mph - N/A   Clear
5:40 PM 69 °F - 37 °F 20% 29.82 in 25 mi SW 13.4 mph - -   Scattered Clouds
5:45 PM 69.8 °F - 28.4 °F 21% 29.91 in 14.0 mi SSW 21.9 mph - N/A   Clear
6:49 PM 64.4 °F - 30.2 °F 28% 30.18 in 14.0 mi SSW 12.7 mph - N/A   Clear
7:45 PM 59.0 °F - 32.0 °F 36% 30.21 in 10.0 mi South 6.9 mph - N/A   Clear
8:40 PM 61 °F - 37 °F 29% 29.83 in 6 mi SW 8.9 mph - -   Clear
11:56 PM 53 °F - 39 °F 47% 29.88 in 6 mi SSW 2.2 mph - -   Clear